| time (UTC) | temp F | wind direction | speed MPH | gust MPH | rain 1hr in | rain 24hr in | rain mn in | humidity % | barometer mb |
| 20260507134654 | 53 | 264 | 5.0 | 11.0 | 0.00 | 0.00 | 0.00 | 67 | 1013.1 |
| 20260507134124 | 52 | 239 | 6.0 | 10.0 | 0.00 | 0.00 | 0.00 | 68 | 1013.2 |
| 20260507133646 | 52 | 271 | 6.0 | 9.0 | 0.00 | 0.00 | 0.00 | 69 | 1013.2 |
| 20260507133124 | 52 | 264 | 4.0 | 9.0 | 0.00 | 0.00 | 0.00 | 69 | 1013.1 |
| 20260507132648 | 51 | 193 | 5.0 | 8.0 | 0.00 | 0.00 | 0.00 | 71 | 1013.2 |
| 20260507132124 | 51 | 250 | 4.0 | 9.0 | 0.00 | 0.00 | 0.00 | 71 | 1013.1 |
| 20260507131629 | 50 | 195 | 2.0 | 10.0 | 0.00 | 0.00 | 0.00 | 72 | 1013.2 |
| 20260507131147 | 50 | 327 | 2.0 | 10.0 | 0.00 | 0.00 | 0.00 | 73 | 1013.3 |
| 20260507130633 | 50 | 307 | 5.0 | 10.0 | 0.00 | 0.00 | 0.00 | 74 | 1013.3 |
| 20260507130119 | 49 | 265 | 3.0 | 9.0 | 0.00 | 0.00 | 0.00 | 74 | 1013.3 |
| 20260507125624 | 49 | 262 | 7.0 | 9.0 | 0.00 | 0.00 | 0.00 | 75 | 1013.5 |
| 20260507125125 | 49 | 268 | 4.0 | 12.0 | 0.00 | 0.00 | 0.00 | 75 | 1013.6 |
| 20260507124649 | 48 | 266 | 4.0 | 12.0 | 0.00 | 0.00 | 0.00 | 76 | 1013.5 |
| 20260507124126 | 48 | 205 | 4.0 | 10.0 | 0.00 | 0.00 | 0.00 | 77 | 1013.5 |
| 20260507123629 | 47 | 281 | 6.0 | 10.0 | 0.00 | 0.00 | 0.00 | 77 | 1013.4 |
| 20260507123127 | 47 | 241 | 6.0 | 8.0 | 0.00 | 0.00 | 0.00 | 78 | 1013.5 |
| 20260507122633 | 47 | 246 | 6.0 | 8.0 | 0.00 | 0.00 | 0.00 | 78 | 1013.4 |
| 20260507122150 | 47 | 211 | 4.0 | 8.0 | 0.00 | 0.00 | 0.00 | 78 | 1013.5 |
| 20260507121632 | 46 | 230 | 2.0 | 6.0 | 0.00 | 0.00 | 0.00 | 79 | 1013.5 |
| 20260507121132 | 46 | 252 | 2.0 | 5.0 | 0.00 | 0.00 | 0.00 | 79 | 1013.6 |
| 20260507120635 | 46 | 282 | 2.0 | 5.0 | 0.00 | 0.00 | 0.00 | 79 | 1013.6 |
| 20260507120134 | 46 | 265 | 3.0 | 5.0 | 0.00 | 0.00 | 0.00 | 79 | 1013.5 |
| 20260507115617 | 46 | 291 | 4.0 | 6.0 | 0.00 | 0.00 | 0.00 | 79 | 1013.5 |
| 20260507115118 | 46 | 254 | 3.0 | 6.0 | 0.00 | 0.00 | 0.00 | 79 | 1013.5 |
| 20260507114625 | 46 | 222 | 2.0 | 5.0 | 0.00 | 0.00 | 0.00 | 79 | 1013.5 |
| 20260507114123 | 46 | 249 | 4.0 | 7.0 | 0.00 | 0.00 | 0.00 | 78 | 1013.5 |
| 20260507113629 | 46 | 277 | 5.0 | 7.0 | 0.00 | 0.00 | 0.00 | 79 | 1013.6 |
| 20260507113150 | 46 | 259 | 2.0 | 6.0 | 0.00 | 0.00 | 0.00 | 78 | 1013.6 |
| 20260507112633 | 46 | 261 | 2.0 | 6.0 | 0.00 | 0.00 | 0.00 | 78 | 1013.6 |
| 20260507112138 | 46 | 269 | 3.0 | 6.0 | 0.00 | 0.00 | 0.00 | 78 | 1013.6 |
| 20260507111623 | 46 | 235 | 3.0 | 8.0 | 0.00 | 0.00 | 0.00 | 78 | 1013.6 |
| 20260507111124 | 46 | 287 | 3.0 | 8.0 | 0.00 | 0.00 | 0.00 | 78 | 1013.7 |
| 20260507110631 | 46 | 248 | 4.0 | 6.0 | 0.00 | 0.00 | 0.00 | 78 | 1013.7 |
| 20260507110152 | 46 | 238 | 2.0 | 5.0 | 0.00 | 0.00 | 0.00 | 78 | 1013.7 |
| 20260507105635 | 46 | 223 | 2.0 | 7.0 | 0.00 | 0.00 | 0.00 | 77 | 1013.6 |
| 20260507105132 | 46 | 262 | 3.0 | 7.0 | 0.00 | 0.00 | 0.00 | 77 | 1013.5 |
| 20260507104624 | 46 | 250 | 4.0 | 7.0 | 0.00 | 0.00 | 0.00 | 77 | 1013.6 |
| 20260507104126 | 46 | 235 | 3.0 | 7.0 | 0.00 | 0.00 | 0.00 | 77 | 1013.6 |
| 20260507103627 | 46 | 254 | 2.0 | 8.0 | 0.00 | 0.00 | 0.00 | 77 | 1013.6 |
| 20260507103142 | 46 | 264 | 2.0 | 8.0 | 0.00 | 0.00 | 0.00 | 78 | 1013.5 |
| 20260507102628 | 46 | 269 | 1.0 | 5.0 | 0.00 | 0.00 | 0.00 | 77 | 1013.5 |
| 20260507102129 | 46 | 270 | 0.0 | 5.0 | 0.00 | 0.00 | 0.00 | 77 | 1013.4 |
| 20260507101621 | 46 | 272 | 2.0 | 6.0 | 0.00 | 0.00 | 0.00 | 77 | 1013.5 |
| 20260507101119 | 46 | 260 | 1.0 | 6.0 | 0.00 | 0.00 | 0.00 | 77 | 1013.5 |
| 20260507100627 | 46 | 272 | 2.0 | 6.0 | 0.00 | 0.00 | 0.00 | 76 | 1013.5 |
| 20260507100145 | 46 | 241 | 1.0 | 8.0 | 0.00 | 0.00 | 0.00 | 76 | 1013.6 |
| 20260507095633 | 46 | 227 | 2.0 | 8.0 | 0.00 | 0.00 | 0.00 | 76 | 1013.7 |
| 20260507095135 | 46 | 216 | 2.0 | 5.0 | 0.00 | 0.00 | 0.00 | 76 | 1013.7 |
| 20260507094618 | 46 | 243 | 1.0 | 5.0 | 0.00 | 0.00 | 0.00 | 75 | 1013.7 |
| 20260507094156 | 47 | 222 | 1.0 | 7.0 | 0.00 | 0.00 | 0.00 | 75 | 1013.8 |
| 20260507093619 | 47 | 226 | 2.0 | 7.0 | 0.00 | 0.00 | 0.00 | 75 | 1013.8 |
| 20260507093117 | 47 | 266 | 3.0 | 5.0 | 0.00 | 0.00 | 0.00 | 74 | 1013.9 |
| 20260507092626 | 47 | 216 | 1.0 | 7.0 | 0.00 | 0.00 | 0.00 | 74 | 1013.9 |
| 20260507092127 | 47 | 231 | 1.0 | 7.0 | 0.00 | 0.00 | 0.00 | 74 | 1013.9 |
| 20260507091631 | 47 | 204 | 2.0 | 8.0 | 0.00 | 0.00 | 0.00 | 73 | 1014.0 |
| 20260507091132 | 47 | 240 | 4.0 | 8.0 | 0.00 | 0.00 | 0.00 | 73 | 1014.0 |
| 20260507090654 | 47 | 258 | 1.0 | 6.0 | 0.00 | 0.00 | 0.00 | 73 | 1014.1 |
| 20260507090152 | 47 | 277 | 2.0 | 6.0 | 0.00 | 0.00 | 0.00 | 73 | 1014.1 |
| 20260507085619 | 47 | 260 | 2.0 | 5.0 | 0.00 | 0.00 | 0.00 | 73 | 1014.1 |
| 20260507085141 | 47 | 246 | 2.0 | 5.0 | 0.00 | 0.00 | 0.00 | 72 | 1014.2 |
| 20260507084626 | 46 | 229 | 3.0 | 5.0 | 0.00 | 0.00 | 0.00 | 72 | 1014.3 |
| 20260507084145 | 46 | 258 | 2.0 | 5.0 | 0.00 | 0.00 | 0.00 | 71 | 1014.4 |
| 20260507083628 | 46 | 254 | 3.0 | 5.0 | 0.00 | 0.00 | 0.00 | 71 | 1014.4 |
| 20260507083126 | 46 | 278 | 2.0 | 5.0 | 0.00 | 0.00 | 0.00 | 70 | 1014.5 |
| 20260507082631 | 46 | 265 | 2.0 | 5.0 | 0.00 | 0.00 | 0.00 | 70 | 1014.5 |
| 20260507082128 | 46 | 273 | 2.0 | 5.0 | 0.00 | 0.00 | 0.00 | 70 | 1014.5 |
| 20260507081633 | 45 | 267 | 2.0 | 4.0 | 0.00 | 0.00 | 0.00 | 69 | 1014.6 |
| 20260507081133 | 45 | 257 | 1.0 | 6.0 | 0.00 | 0.00 | 0.00 | 69 | 1014.7 |
| 20260507080637 | 45 | 245 | 2.0 | 6.0 | 0.00 | 0.00 | 0.00 | 69 | 1014.7 |
| 20260507080121 | 45 | 295 | 1.0 | 2.0 | 0.00 | 0.00 | 0.00 | 68 | 1014.9 |
| 20260507075630 | 45 | 298 | 1.0 | 2.0 | 0.00 | 0.00 | 0.00 | 67 | 1014.8 |
| 20260507075148 | 44 | 298 | 1.0 | 2.0 | 0.00 | 0.00 | 0.00 | 67 | 1014.9 |
| 20260507074634 | 44 | 305 | 0.0 | 2.0 | 0.00 | 0.00 | 0.00 | 66 | 1014.9 |
| 20260507074156 | 44 | 305 | 0.0 | 2.0 | 0.00 | 0.00 | 0.00 | 65 | 1015.0 |
| 20260507073635 | 44 | 305 | 0.0 | 2.0 | 0.00 | 0.00 | 0.00 | 65 | 1015.0 |
| 20260507073115 | 44 | 305 | 0.0 | 2.0 | 0.00 | 0.00 | 0.00 | 65 | 1015.1 |
| 20260507072627 | 43 | 306 | 1.0 | 1.0 | 0.00 | 0.00 | 0.00 | 65 | 1015.3 |
| 20260507072123 | 43 | 311 | 0.0 | 0.0 | 0.00 | 0.00 | 0.00 | 64 | 1015.3 |
| 20260507071630 | 43 | 311 | 0.0 | 0.0 | 0.00 | 0.00 | 0.00 | 63 | 1015.3 |
| 20260507071126 | 44 | 311 | 0.0 | 0.0 | 0.00 | 0.00 | 0.00 | 62 | 1015.4 |
| 20260507070633 | 44 | 311 | 0.0 | 0.0 | 0.00 | 0.00 | 0.00 | 61 | 1015.4 |
| 20260507070132 | 44 | 311 | 0.0 | 0.0 | 0.00 | 0.00 | 0.00 | 61 | 1015.5 |
| 20260507065654 | 44 | 311 | 0.0 | 0.0 | 0.00 | 0.00 | 0.00 | 61 | 1015.6 |
| 20260507065140 | 44 | 311 | 0.0 | 1.0 | 0.00 | 0.00 | 0.00 | 61 | 1015.7 |
| 20260507064622 | 44 | 311 | 0.0 | 1.0 | 0.00 | 0.00 | 0.00 | 61 | 1015.8 |
| 20260507064120 | 44 | 311 | 0.0 | 1.0 | 0.00 | 0.00 | 0.00 | 61 | 1015.8 |
| 20260507063625 | 44 | 311 | 0.0 | 0.0 | 0.00 | 0.00 | 0.00 | 61 | 1015.7 |
| 20260507063141 | 44 | 311 | 0.0 | 0.0 | 0.00 | 0.00 | 0.00 | 61 | 1015.8 |
| 20260507062629 | 44 | 311 | 0.0 | 0.0 | 0.00 | 0.00 | 0.00 | 60 | 1015.8 |
| 20260507062128 | 44 | 311 | 0.0 | 0.0 | 0.00 | 0.00 | 0.00 | 60 | 1015.8 |
| 20260507061651 | 45 | 311 | 0.0 | 0.0 | 0.00 | 0.00 | 0.00 | 60 | 1015.9 |
| 20260507061128 | 45 | 311 | 0.0 | 1.0 | 0.00 | 0.00 | 0.00 | 59 | 1016.0 |
| 20260507060636 | 45 | 311 | 0.0 | 1.0 | 0.00 | 0.00 | 0.00 | 59 | 1016.0 |
| 20260507060118 | 45 | 311 | 0.0 | 0.0 | 0.00 | 0.00 | 0.00 | 59 | 1016.0 |
| 20260507055624 | 45 | 311 | 0.0 | 1.0 | 0.00 | 0.00 | 0.00 | 60 | 1016.1 |
| 20260507055126 | 45 | 311 | 0.0 | 1.0 | 0.00 | 0.00 | 0.00 | 59 | 1016.1 |
| 20260507054629 | 45 | 311 | 0.0 | 1.0 | 0.00 | 0.00 | 0.00 | 59 | 1016.1 |
| 20260507054126 | 45 | 311 | 0.0 | 1.0 | 0.00 | 0.00 | 0.00 | 60 | 1016.1 |
| 20260507053634 | 45 | 311 | 0.0 | 0.0 | 0.00 | 0.00 | 0.00 | 59 | 1016.1 |
| 20260507053135 | 45 | 311 | 0.0 | 0.0 | 0.00 | 0.00 | 0.00 | 59 | 1016.0 |
| 20260507052622 | 45 | 311 | 0.0 | 0.0 | 0.00 | 0.00 | 0.00 | 58 | 1016.1 |
| 20260507052125 | 45 | 311 | 0.0 | 0.0 | 0.00 | 0.00 | 0.00 | 60 | 1016.3 |
| 20260507051628 | 45 | 311 | 0.0 | 0.0 | 0.00 | 0.00 | 0.00 | 61 | 1016.3 |
| 20260507051148 | 45 | 311 | 0.0 | 0.0 | 0.00 | 0.00 | 0.00 | 59 | 1016.2 |
| 20260507050628 | 45 | 311 | 0.0 | 0.0 | 0.00 | 0.00 | 0.00 | 56 | 1016.2 |
| 20260507050133 | 46 | 311 | 0.0 | 0.0 | 0.00 | 0.00 | 0.00 | 57 | 1016.1 |
| 20260507045628 | 46 | 311 | 0.0 | 0.0 | 0.00 | 0.00 | 0.00 | 57 | 1016.1 |
| 20260507045128 | 46 | 311 | 0.0 | 0.0 | 0.00 | 0.00 | 0.00 | 56 | 1016.2 |
| 20260507044635 | 46 | 311 | 0.0 | 0.0 | 0.00 | 0.00 | 0.00 | 55 | 1016.2 |
| 20260507044136 | 46 | 311 | 0.0 | 0.0 | 0.00 | 0.00 | 0.00 | 55 | 1016.2 |
| 20260507043623 | 46 | 311 | 0.0 | 0.0 | 0.00 | 0.00 | 0.00 | 55 | 1016.3 |
| 20260507043122 | 46 | 311 | 0.0 | 0.0 | 0.00 | 0.00 | 0.00 | 55 | 1016.3 |
| 20260507042627 | 46 | 311 | 0.0 | 1.0 | 0.00 | 0.00 | 0.00 | 55 | 1016.4 |
| 20260507042127 | 46 | 311 | 0.0 | 1.0 | 0.00 | 0.00 | 0.00 | 56 | 1016.4 |
| 20260507041629 | 46 | 311 | 0.0 | 0.0 | 0.00 | 0.00 | 0.00 | 56 | 1016.5 |
| 20260507041127 | 46 | 311 | 0.0 | 0.0 | 0.00 | 0.00 | 0.00 | 56 | 1016.5 |
| 20260507040632 | 46 | 311 | 0.0 | 1.0 | 0.00 | 0.00 | 0.00 | 57 | 1016.5 |
| 20260507040132 | 46 | 311 | 0.0 | 1.0 | 0.00 | 0.00 | 0.00 | 57 | 1016.5 |
| 20260507035656 | 47 | 311 | 0.0 | 0.0 | 0.00 | 0.00 | 0.00 | 56 | 1016.6 |
| 20260507035133 | 47 | 311 | 0.0 | 2.0 | 0.00 | 0.00 | 0.00 | 56 | 1016.7 |
| 20260507034635 | 47 | 311 | 0.0 | 2.0 | 0.00 | 0.00 | 0.00 | 55 | 1016.7 |
| 20260507034133 | 48 | 311 | 0.0 | 0.0 | 0.00 | 0.00 | 0.00 | 52 | 1016.7 |
| 20260507033621 | 48 | 311 | 0.0 | 0.0 | 0.00 | 0.00 | 0.00 | 51 | 1016.7 |
| 20260507033118 | 48 | 311 | 0.0 | 0.0 | 0.00 | 0.00 | 0.00 | 50 | 1016.7 |
| 20260507032621 | 48 | 311 | 0.0 | 0.0 | 0.00 | 0.00 | 0.00 | 50 | 1016.7 |
| 20260507032143 | 48 | 311 | 0.0 | 0.0 | 0.00 | 0.00 | 0.00 | 50 | 1016.7 |
| 20260507031626 | 48 | 311 | 0.0 | 0.0 | 0.00 | 0.00 | 0.00 | 50 | 1016.7 |
| 20260507031126 | 48 | 311 | 0.0 | 1.0 | 0.00 | 0.00 | 0.00 | 50 | 1016.7 |
| 20260507030629 | 48 | 311 | 0.0 | 1.0 | 0.00 | 0.00 | 0.00 | 50 | 1016.7 |
| 20260507030132 | 48 | 311 | 0.0 | 0.0 | 0.00 | 0.00 | 0.00 | 51 | 1016.7 |
| 20260507025656 | 49 | 311 | 0.0 | 0.0 | 0.00 | 0.00 | 0.00 | 51 | 1016.7 |
| 20260507025133 | 49 | 311 | 0.0 | 0.0 | 0.00 | 0.00 | 0.00 | 50 | 1016.7 |
| 20260507024625 | 49 | 311 | 0.0 | 0.0 | 0.00 | 0.00 | 0.00 | 50 | 1016.7 |
| 20260507024123 | 49 | 311 | 0.0 | 0.0 | 0.00 | 0.00 | 0.00 | 49 | 1016.8 |
| 20260507023631 | 49 | 311 | 0.0 | 0.0 | 0.00 | 0.00 | 0.00 | 49 | 1016.7 |
| 20260507023133 | 50 | 311 | 0.0 | 0.0 | 0.00 | 0.00 | 0.00 | 47 | 1016.7 |
| 20260507022617 | 50 | 311 | 0.0 | 0.0 | 0.00 | 0.00 | 0.00 | 46 | 1016.6 |
| 20260507022134 | 51 | 311 | 0.0 | 0.0 | 0.00 | 0.00 | 0.00 | 46 | 1016.6 |
| 20260507021639 | 51 | 311 | 0.0 | 0.0 | 0.00 | 0.00 | 0.00 | 45 | 1016.5 |
| 20260507021119 | 51 | 311 | 0.0 | 0.0 | 0.00 | 0.00 | 0.00 | 45 | 1016.4 |
| 20260507020626 | 52 | 311 | 0.0 | 0.0 | 0.00 | 0.00 | 0.00 | 44 | 1016.5 |
| 20260507020125 | 52 | 311 | 0.0 | 0.0 | 0.00 | 0.00 | 0.00 | 43 | 1016.5 |
| 20260507015629 | 53 | 311 | 0.0 | 0.0 | 0.00 | 0.00 | 0.00 | 43 | 1016.5 |
| 20260507015127 | 53 | 311 | 0.0 | 0.0 | 0.00 | 0.00 | 0.00 | 42 | 1016.4 |
| 20260507014650 | 54 | 311 | 0.0 | 0.0 | 0.00 | 0.00 | 0.00 | 42 | 1016.5 |
| 20260507014126 | 54 | 311 | 0.0 | 1.0 | 0.00 | 0.00 | 0.00 | 41 | 1016.4 |
| 20260507013630 | 55 | 311 | 0.0 | 1.0 | 0.00 | 0.00 | 0.00 | 40 | 1016.3 |
| 20260507013128 | 55 | 311 | 0.0 | 0.0 | 0.00 | 0.00 | 0.00 | 39 | 1016.3 |
| 20260507012631 | 56 | 311 | 0.0 | 0.0 | 0.00 | 0.00 | 0.00 | 37 | 1016.3 |
| 20260507012130 | 56 | 311 | 0.0 | 0.0 | 0.00 | 0.00 | 0.00 | 35 | 1016.3 |
| 20260507011634 | 57 | 311 | 0.0 | 0.0 | 0.00 | 0.00 | 0.00 | 35 | 1016.3 |
| 20260507011152 | 57 | 311 | 0.0 | 0.0 | 0.00 | 0.00 | 0.00 | 33 | 1016.3 |
| 20260507010635 | 58 | 311 | 0.0 | 1.0 | 0.00 | 0.00 | 0.00 | 33 | 1016.4 |
| 20260507010114 | 58 | 311 | 0.0 | 2.0 | 0.00 | 0.00 | 0.00 | 31 | 1016.3 |
| 20260507005622 | 58 | 311 | 0.0 | 3.0 | 0.00 | 0.00 | 0.00 | 31 | 1016.3 |
| 20260507005126 | 58 | 328 | 1.0 | 4.0 | 0.00 | 0.00 | 0.00 | 30 | 1016.3 |
| 20260507004631 | 59 | 331 | 1.0 | 6.0 | 0.00 | 0.00 | 0.00 | 29 | 1016.3 |
| 20260507004128 | 59 | 335 | 2.0 | 6.0 | 0.00 | 0.00 | 0.00 | 30 | 1016.4 |
| 20260507003652 | 59 | 330 | 2.0 | 5.0 | 0.00 | 0.00 | 0.00 | 30 | 1016.4 |
| 20260507003130 | 59 | 267 | 3.0 | 7.0 | 0.00 | 0.00 | 0.00 | 30 | 1016.5 |
| 20260507002635 | 59 | 291 | 3.0 | 7.0 | 0.00 | 0.00 | 0.00 | 29 | 1016.5 |
| 20260507002134 | 60 | 280 | 2.0 | 4.0 | 0.00 | 0.00 | 0.00 | 30 | 1016.5 |
| 20260507001623 | 60 | 181 | 2.0 | 4.0 | 0.00 | 0.00 | 0.00 | 29 | 1016.5 |
| 20260507001124 | 60 | 282 | 3.0 | 4.0 | 0.00 | 0.00 | 0.00 | 30 | 1016.6 |
| 20260507000633 | 60 | 19 | 1.0 | 7.0 | 0.00 | 0.00 | 0.00 | 29 | 1016.6 |
| 20260507000117 | 60 | 338 | 2.0 | 7.0 | 0.00 | 0.00 | 0.00 | 29 | 1016.7 |
| 20260506235622 | 59 | 265 | 1.0 | 7.0 | 0.00 | 0.00 | 0.00 | 30 | 1016.7 |
| 20260506235119 | 59 | 288 | 1.0 | 7.0 | 0.00 | 0.00 | 0.00 | 29 | 1016.8 |
| 20260506234623 | 60 | 320 | 2.0 | 6.0 | 0.00 | 0.00 | 0.00 | 29 | 1016.9 |
| 20260506234120 | 60 | 254 | 2.0 | 6.0 | 0.00 | 0.00 | 0.00 | 30 | 1016.8 |
| 20260506233626 | 60 | 277 | 3.0 | 6.0 | 0.00 | 0.00 | 0.00 | 30 | 1016.9 |
| 20260506233125 | 60 | 287 | 4.0 | 6.0 | 0.00 | 0.00 | 0.00 | 30 | 1016.9 |
| 20260506232631 | 61 | 285 | 3.0 | 6.0 | 0.00 | 0.00 | 0.00 | 29 | 1016.8 |
| 20260506232130 | 61 | 234 | 3.0 | 6.0 | 0.00 | 0.00 | 0.00 | 30 | 1016.8 |
| 20260506231618 | 60 | 258 | 1.0 | 6.0 | 0.00 | 0.00 | 0.00 | 29 | 1016.9 |
| 20260506231136 | 60 | 229 | 3.0 | 8.0 | 0.00 | 0.00 | 0.00 | 29 | 1017.0 |
| 20260506230641 | 60 | 288 | 3.0 | 11.0 | 0.00 | 0.00 | 0.00 | 29 | 1017.1 |
| 20260506230117 | 59 | 320 | 5.0 | 11.0 | 0.00 | 0.00 | 0.00 | 29 | 1017.1 |
| 20260506225622 | 59 | 73 | 4.0 | 8.0 | 0.00 | 0.00 | 0.00 | 30 | 1017.1 |
| 20260506225123 | 59 | 285 | 4.0 | 11.0 | 0.00 | 0.00 | 0.00 | 30 | 1017.1 |
| 20260506224627 | 60 | 279 | 4.0 | 11.0 | 0.00 | 0.00 | 0.00 | 30 | 1017.2 |
| 20260506224125 | 60 | 284 | 4.0 | 9.0 | 0.00 | 0.00 | 0.00 | 29 | 1017.2 |
| 20260506223628 | 60 | 285 | 3.0 | 9.0 | 0.00 | 0.00 | 0.00 | 30 | 1017.2 |
| 20260506223126 | 61 | 276 | 2.0 | 10.0 | 0.00 | 0.00 | 0.00 | 29 | 1017.2 |
| 20260506222630 | 61 | 249 | 3.0 | 10.0 | 0.00 | 0.00 | 0.00 | 30 | 1017.3 |
| 20260506222142 | 61 | 296 | 3.0 | 7.0 | 0.00 | 0.00 | 0.00 | 29 | 1017.3 |
| 20260506221624 | 60 | 199 | 2.0 | 6.0 | 0.00 | 0.00 | 0.00 | 31 | 1017.4 |
| 20260506221123 | 59 | 300 | 1.0 | 8.0 | 0.00 | 0.00 | 0.00 | 31 | 1017.4 |
| 20260506220631 | 59 | 294 | 2.0 | 10.0 | 0.00 | 0.00 | 0.00 | 31 | 1017.5 |
| 20260506220133 | 60 | 19 | 3.0 | 10.0 | 0.00 | 0.00 | 0.00 | 30 | 1016.7 |
| 20260506215618 | 60 | 354 | 3.0 | 7.0 | 0.00 | 0.00 | 0.00 | 29 | 1016.5 |
| 20260506215120 | 60 | 358 | 2.0 | 10.0 | 0.00 | 0.00 | 0.00 | 30 | 1016.7 |
| 20260506214623 | 60 | 265 | 3.0 | 11.0 | 0.00 | 0.00 | 0.00 | 30 | 1016.7 |
| 20260506214124 | 60 | 326 | 5.0 | 11.0 | 0.00 | 0.00 | 0.00 | 29 | 1016.7 |
| 20260506213627 | 60 | 271 | 6.0 | 9.0 | 0.00 | 0.00 | 0.00 | 29 | 1016.7 |
| 20260506213145 | 60 | 330 | 4.0 | 6.0 | 0.00 | 0.00 | 0.00 | 30 | 1016.7 |
| 20260506212630 | 59 | 304 | 2.0 | 7.0 | 0.00 | 0.00 | 0.00 | 30 | 1016.8 |
| 20260506212133 | 59 | 285 | 3.0 | 11.0 | 0.00 | 0.00 | 0.00 | 31 | 1016.9 |
| 20260506211617 | 59 | 331 | 4.0 | 11.0 | 0.00 | 0.00 | 0.00 | 30 | 1017.0 |
| 20260506211136 | 59 | 262 | 5.0 | 11.0 | 0.00 | 0.00 | 0.00 | 30 | 1017.1 |
| 20260506210639 | 59 | 316 | 4.0 | 11.0 | 0.00 | 0.00 | 0.00 | 31 | 1017.2 |
| 20260506210118 | 58 | 260 | 7.0 | 10.0 | 0.00 | 0.00 | 0.00 | 31 | 1017.2 |
| 20260506205646 | 58 | 243 | 3.0 | 9.0 | 0.00 | 0.00 | 0.00 | 31 | 1017.3 |
| 20260506205125 | 58 | 231 | 4.0 | 15.0 | 0.00 | 0.00 | 0.00 | 31 | 1018.4 |
| 20260506204629 | 59 | 317 | 5.0 | 15.0 | 0.00 | 0.00 | 0.00 | 31 | 1018.3 |
| 20260506204124 | 59 | 302 | 3.0 | 13.0 | 0.00 | 0.00 | 0.00 | 31 | 1018.3 |
| 20260506203633 | 59 | 274 | 3.0 | 8.0 | 0.00 | 0.00 | 0.00 | 32 | 1018.4 |
| 20260506203132 | 59 | 283 | 5.0 | 9.0 | 0.00 | 0.00 | 0.00 | 31 | 1018.5 |
| 20260506202654 | 58 | 275 | 4.0 | 9.0 | 0.00 | 0.00 | 0.00 | 31 | 1018.6 |
| 20260506202130 | 59 | 293 | 4.0 | 9.0 | 0.00 | 0.00 | 0.00 | 32 | 1018.6 |
| 20260506201633 | 58 | 53 | 3.0 | 9.0 | 0.00 | 0.00 | 0.00 | 33 | 1017.7 |
| 20260506201118 | 58 | 251 | 3.0 | 8.0 | 0.00 | 0.00 | 0.00 | 32 | 1018.7 |
| 20260506200621 | 58 | 42 | 1.0 | 11.0 | 0.00 | 0.00 | 0.00 | 33 | 1018.8 |
| 20260506200119 | 59 | 267 | 4.0 | 11.0 | 0.00 | 0.00 | 0.00 | 31 | 1018.8 |
| 20260506195643 | 59 | 328 | 3.0 | 11.0 | 0.00 | 0.00 | 0.00 | 32 | 1018.8 |
| 20260506195121 | 59 | 285 | 3.0 | 14.0 | 0.00 | 0.00 | 0.00 | 34 | 1018.8 |
| 20260506194633 | 58 | 203 | 6.0 | 15.0 | 0.00 | 0.00 | 0.00 | 31 | 1018.0 |
| 20260506194133 | 59 | 287 | 6.0 | 17.0 | 0.00 | 0.00 | 0.00 | 32 | 1018.9 |
| 20260506193636 | 59 | 251 | 7.0 | 17.0 | 0.00 | 0.00 | 0.00 | 32 | 1018.9 |
| 20260506193135 | 58 | 295 | 5.0 | 9.0 | 0.00 | 0.00 | 0.00 | 32 | 1019.0 |
| 20260506192625 | 58 | 285 | 4.0 | 10.0 | 0.00 | 0.00 | 0.00 | 32 | 1019.0 |
| 20260506192125 | 57 | 338 | 4.0 | 10.0 | 0.00 | 0.00 | 0.00 | 33 | 1017.9 |
| 20260506191629 | 57 | 272 | 2.0 | 11.0 | 0.00 | 0.00 | 0.00 | 34 | 1018.0 |
| 20260506191153 | 57 | 264 | 6.0 | 10.0 | 0.00 | 0.00 | 0.00 | 34 | 1018.1 |
| 20260506190619 | 58 | 256 | 3.0 | 10.0 | 0.00 | 0.00 | 0.00 | 33 | 1019.0 |
| 20260506190119 | 58 | 273 | 5.0 | 11.0 | 0.00 | 0.00 | 0.00 | 34 | 1019.0 |
| 20260506185623 | 58 | 278 | 3.0 | 9.0 | 0.00 | 0.00 | 0.00 | 35 | 1019.0 |
| 20260506185122 | 57 | 281 | 5.0 | 18.0 | 0.00 | 0.00 | 0.00 | 35 | 1019.1 |
| 20260506184630 | 56 | 243 | 5.0 | 18.0 | 0.00 | 0.00 | 0.00 | 34 | 1019.3 |
| 20260506184127 | 56 | 320 | 5.0 | 12.0 | 0.00 | 0.00 | 0.00 | 35 | 1019.3 |
| 20260506183636 | 56 | 336 | 5.0 | 11.0 | 0.00 | 0.00 | 0.00 | 34 | 1019.5 |
| 20260506183134 | 57 | 210 | 4.0 | 16.0 | 0.00 | 0.00 | 0.00 | 36 | 1019.5 |
| 20260506182624 | 56 | 234 | 9.0 | 16.0 | 0.00 | 0.00 | 0.00 | 35 | 1019.5 |
| 20260506182126 | 56 | 291 | 0.0 | 9.0 | 0.00 | 0.00 | 0.00 | 34 | 1019.4 |
| 20260506181629 | 56 | 300 | 4.0 | 7.0 | 0.00 | 0.00 | 0.00 | 36 | 1019.5 |
| 20260506181126 | 55 | 256 | 3.0 | 7.0 | 0.00 | 0.00 | 0.00 | 36 | 1019.5 |
| 20260506180629 | 56 | 270 | 3.0 | 11.0 | 0.00 | 0.00 | 0.00 | 38 | 1019.6 |
| 20260506180130 | 56 | 275 | 5.0 | 11.0 | 0.00 | 0.00 | 0.00 | 37 | 1019.7 |
| 20260506175634 | 56 | 244 | 4.0 | 11.0 | 0.00 | 0.00 | 0.00 | 37 | 1019.8 |
| 20260506175135 | 56 | 260 | 5.0 | 10.0 | 0.00 | 0.00 | 0.00 | 37 | 1019.9 |
| 20260506174618 | 55 | 243 | 4.0 | 10.0 | 0.00 | 0.00 | 0.00 | 41 | 1019.9 |
| 20260506174118 | 55 | 273 | 5.0 | 10.0 | 0.00 | 0.00 | 0.00 | 37 | 1019.8 |
| 20260506173626 | 54 | 14 | 4.0 | 10.0 | 0.00 | 0.00 | 0.00 | 37 | 1020.0 |
| 20260506173123 | 54 | 262 | 6.0 | 11.0 | 0.00 | 0.00 | 0.00 | 38 | 1020.0 |
| 20260506172629 | 54 | 295 | 3.0 | 14.0 | 0.00 | 0.00 | 0.00 | 37 | 1020.1 |
| 20260506172152 | 54 | 286 | 7.0 | 14.0 | 0.00 | 0.00 | 0.00 | 36 | 1020.1 |
| 20260506171618 | 55 | 277 | 6.0 | 12.0 | 0.00 | 0.00 | 0.00 | 36 | 1020.1 |
| 20260506171117 | 55 | 247 | 9.0 | 12.0 | 0.00 | 0.00 | 0.00 | 35 | 1020.2 |
| 20260506170622 | 55 | 48 | 5.0 | 12.0 | 0.00 | 0.00 | 0.00 | 36 | 1020.3 |
| 20260506170140 | 55 | 248 | 3.0 | 10.0 | 0.00 | 0.00 | 0.00 | 38 | 1020.1 |
| 20260506165626 | 54 | 356 | 4.0 | 10.0 | 0.00 | 0.00 | 0.00 | 37 | 1020.3 |
| 20260506165122 | 54 | 262 | 5.0 | 9.0 | 0.00 | 0.00 | 0.00 | 38 | 1020.3 |
| 20260506164627 | 54 | 228 | 4.0 | 10.0 | 0.00 | 0.00 | 0.00 | 37 | 1020.4 |
| 20260506164125 | 54 | 206 | 6.0 | 10.0 | 0.00 | 0.00 | 0.00 | 40 | 1020.4 |
| 20260506163628 | 54 | 9 | 3.0 | 9.0 | 0.00 | 0.00 | 0.00 | 42 | 1020.3 |
| 20260506163125 | 53 | 240 | 4.0 | 9.0 | 0.00 | 0.00 | 0.00 | 41 | 1020.4 |
| 20260506162631 | 53 | 77 | 4.0 | 10.0 | 0.00 | 0.00 | 0.00 | 40 | 1020.5 |
| 20260506162155 | 52 | 267 | 4.0 | 10.0 | 0.00 | 0.00 | 0.00 | 41 | 1020.3 |
| 20260506161654 | 53 | 271 | 3.0 | 7.0 | 0.00 | 0.00 | 0.00 | 41 | 1020.3 |
| 20260506161129 | 52 | 81 | 1.0 | 11.0 | 0.00 | 0.00 | 0.00 | 44 | 1020.4 |
| 20260506160634 | 52 | 111 | 1.0 | 12.0 | 0.00 | 0.00 | 0.00 | 41 | 1020.3 |
| 20260506160133 | 52 | 337 | 4.0 | 12.0 | 0.00 | 0.00 | 0.00 | 40 | 1020.3 |
| 20260506155624 | 52 | 339 | 5.0 | 6.0 | 0.00 | 0.00 | 0.00 | 41 | 1020.3 |
| 20260506155125 | 52 | 332 | 4.0 | 11.0 | 0.00 | 0.00 | 0.00 | 42 | 1020.3 |
| 20260506154633 | 52 | 9 | 3.0 | 11.0 | 0.00 | 0.00 | 0.00 | 41 | 1020.3 |
| 20260506154114 | 52 | 288 | 5.0 | 9.0 | 0.00 | 0.00 | 0.00 | 41 | 1020.3 |
| 20260506153623 | 51 | 307 | 2.0 | 8.0 | 0.00 | 0.00 | 0.00 | 43 | 1020.3 |
| 20260506153120 | 51 | 323 | 3.0 | 8.0 | 0.00 | 0.00 | 0.00 | 42 | 1020.3 |
| 20260506152627 | 51 | 358 | 1.0 | 8.0 | 0.00 | 0.00 | 0.00 | 43 | 1020.3 |
| 20260506152126 | 51 | 324 | 3.0 | 10.0 | 0.00 | 0.00 | 0.00 | 43 | 1020.3 |
| 20260506151633 | 51 | 300 | 3.0 | 10.0 | 0.00 | 0.00 | 0.00 | 43 | 1020.4 |
| 20260506151133 | 51 | 19 | 3.0 | 7.0 | 0.00 | 0.00 | 0.00 | 42 | 1020.3 |
| 20260506150620 | 52 | 275 | 4.0 | 7.0 | 0.00 | 0.00 | 0.00 | 43 | 1020.4 |
| 20260506150124 | 51 | 53 | 3.0 | 7.0 | 0.00 | 0.00 | 0.00 | 42 | 1020.4 |
| 20260506145633 | 51 | 287 | 3.0 | 7.0 | 0.00 | 0.00 | 0.00 | 46 | 1020.4 |
| 20260506145114 | 50 | 298 | 1.0 | 7.0 | 0.00 | 0.00 | 0.00 | 46 | 1020.5 |
| 20260506144621 | 50 | 309 | 4.0 | 8.0 | 0.00 | 0.00 | 0.00 | 45 | 1020.4 |
| 20260506144118 | 50 | 286 | 4.0 | 8.0 | 0.00 | 0.00 | 0.00 | 46 | 1020.4 |
| 20260506143618 | 50 | 321 | 3.0 | 5.0 | 0.00 | 0.00 | 0.00 | 45 | 1020.4 |
| 20260506143134 | 49 | 350 | 1.0 | 7.0 | 0.00 | 0.00 | 0.00 | 46 | 1020.4 |
| 20260506142638 | 49 | 237 | 2.0 | 7.0 | 0.00 | 0.00 | 0.00 | 47 | 1020.3 |
| 20260506142122 | 49 | 65 | 1.0 | 7.0 | 0.00 | 0.00 | 0.00 | 48 | 1020.4 |
| 20260506141630 | 49 | 36 | 2.0 | 7.0 | 0.00 | 0.00 | 0.00 | 46 | 1020.3 |
| 20260506141129 | 49 | 19 | 1.0 | 4.0 | 0.00 | 0.00 | 0.00 | 47 | 1020.3 |
| 20260506140635 | 48 | 19 | 1.0 | 5.0 | 0.00 | 0.00 | 0.00 | 48 | 1020.2 |
| 20260506140136 | 48 | 277 | 2.0 | 5.0 | 0.00 | 0.00 | 0.00 | 48 | 1020.1 |
| 20260506135624 | 48 | 333 | 1.0 | 5.0 | 0.00 | 0.00 | 0.00 | 50 | 1020.1 |
| 20260506135119 | 47 | 264 | 3.0 | 5.0 | 0.00 | 0.00 | 0.00 | 50 | 1020.1 |